Weather History for Anniston, AL

Change the Weather History Date:

Friday, April 12, 2013

  Actual Average Record
Temperature  
Mean Temperature 57 °F 61 °F  
Max Temperature 68 °F 73 °F 87 °F (1977)
Min Temperature 46 °F 48 °F 33 °F (1973)
Degree Days  
Heating Degree Days 8    
Month to date heating degree days 73  
Since 1 July heating degree days 2578  
Growing Degree Days 8 (Base 50)    
Moisture  
Dew Point 50 °F    
Average Humidity 66    
Maximum Humidity 97    
Minimum Humidity 34    
Precipitation  
Precipitation T in 0.14 in 4.77 in (1979)
Month to date precipitation 3.90 1.68  
Year to date precipitation 21.85 16.24  
Sea Level Pressure  
Sea Level Pressure 29.84 in    
Wind  
Wind Speed 7 mph (West)    
Max Wind Speed 15 mph    
Max Gust Speed 21 mph    
Visibility 9 miles    
Events Rain    
T = Trace of Precipitation, MM = Missing Value Source: NWS Daily Summary

Daily Weather History Graph

Daily Weather History Graph

Search for Another Location

Airport:

Trip Planner

Search our weather history database for the weather conditions in past years. The results will help you decide how hot, cold, wet, or windy it might be!

Date:

Astronomy

Apr. 12, 2013 Rise Set
Actual Time 6:16 AM CDT 7:12 PM CDT
Civil Twilight 5:50 AM CDT 7:37 PM CDT
Nautical Twilight 5:20 AM CDT 8:08 PM CDT
Astronomical Twilight 4:49 AM CDT 8:39 PM CDT
Moon 7:32 AM CDT (4/12) 9:35 PM CDT (4/12)
Length of Visible Light 13h 46m
Length of Day
12h 55m
Waxing Crescent, 5% of the Moon is Illuminated
Apr 12
Waxing Crescent
Apr 18
First Quarter
Apr 25
Full
May 2
Last Quarter
May 9
New

Hourly Weather History & Observations

Time (CDT) Temp. Dew Point Humidity Pressure Visibility Wind Dir Wind Speed Gust Speed Precip Events Conditions
12:03 AM 64.4 °F 62.6 °F 94% 29.70 in 1.8 mi SW 11.5 mph 19.6 mph 0.08 in Rain Heavy Rain
12:08 AM 64.4 °F 62.6 °F 94% 29.70 in 1.8 mi SW 8.1 mph - 0.11 in Rain Heavy Rain
12:14 AM 64.4 °F 62.6 °F 94% 29.71 in 3.0 mi West 13.8 mph 20.7 mph 0.12 in Rain Rain
12:32 AM 62.6 °F 60.8 °F 94% 29.71 in 9.0 mi West 10.4 mph - 0.13 in Rain Light Rain
12:41 AM 62.6 °F 60.8 °F 94% 29.72 in 9.0 mi WSW 10.4 mph - 0.13 in Rain Light Rain
12:53 AM 62.1 °F 60.1 °F 93% 29.72 in 10.0 mi WSW 9.2 mph - 0.13 in   Overcast
1:02 AM 62.6 °F 60.8 °F 94% 29.73 in 9.0 mi WSW 6.9 mph - 0.00 in Rain Light Rain
1:14 AM 62.6 °F 60.8 °F 94% 29.73 in 9.0 mi WSW 9.2 mph - 0.00 in Rain Light Rain
1:53 AM 61.0 °F 59.0 °F 93% 29.72 in 10.0 mi WSW 6.9 mph - 0.00 in   Overcast
2:17 AM 60.8 °F 57.2 °F 88% 29.75 in 10.0 mi West 9.2 mph - N/A   Overcast
2:50 AM 59.0 °F 57.2 °F 94% 29.75 in 10.0 mi West 11.5 mph - N/A   Overcast
2:53 AM 59.0 °F 57.0 °F 93% 29.74 in 10.0 mi West 12.7 mph - N/A   Overcast
3:10 AM 57.2 °F 55.4 °F 94% 29.76 in 9.0 mi West 9.2 mph - N/A   Overcast
3:53 AM 57.0 °F 55.0 °F 93% 29.76 in 4.0 mi WNW 8.1 mph 16.1 mph 0.00 in   Overcast
4:11 AM 57.2 °F 55.4 °F 94% 29.78 in 10.0 mi West 9.2 mph - N/A   Overcast
4:27 AM 55.4 °F 53.6 °F 94% 29.80 in 10.0 mi West 10.4 mph - N/A   Overcast
4:53 AM 55.9 °F 51.1 °F 84% 29.80 in 10.0 mi West 10.4 mph - N/A   Overcast
5:53 AM 53.1 °F 50.0 °F 89% 29.83 in 10.0 mi West 9.2 mph - 0.00 in   Overcast
6:53 AM 51.1 °F 45.0 °F 80% 29.88 in 10.0 mi NNW 8.1 mph 18.4 mph N/A   Mostly Cloudy
7:00 AM 51.8 °F 44.6 °F 76% 29.88 in 10.0 mi NW 5.8 mph - N/A   Scattered Clouds
7:53 AM 50.0 °F 43.0 °F 77% 29.91 in 10.0 mi WNW 4.6 mph - N/A   Clear
8:53 AM 52.0 °F 42.1 °F 69% 29.92 in 10.0 mi NNW 10.4 mph 16.1 mph N/A   Partly Cloudy
9:53 AM 54.0 °F 41.0 °F 62% 29.93 in 10.0 mi North 8.1 mph - N/A   Partly Cloudy
10:53 AM 57.0 °F 39.9 °F 53% 29.94 in 10.0 mi NW 9.2 mph 19.6 mph N/A   Clear
11:53 AM 60.1 °F 41.0 °F 49% 29.94 in 10.0 mi Variable 5.8 mph - N/A   Clear
12:53 PM 62.1 °F 39.9 °F 44% 29.92 in 10.0 mi WNW 9.2 mph 18.4 mph N/A   Clear
1:53 PM 64.9 °F 39.9 °F 40% 29.91 in 10.0 mi West 12.7 mph 19.6 mph N/A   Clear
2:53 PM 66.0 °F 39.9 °F 38% 29.90 in 10.0 mi West 9.2 mph 18.4 mph N/A   Clear
3:53 PM 66.9 °F 39.9 °F 37% 29.88 in 10.0 mi West 9.2 mph 18.4 mph N/A   Clear
4:53 PM 66.9 °F 37.9 °F 34% 29.89 in 10.0 mi WSW 12.7 mph 18.4 mph N/A   Clear
5:53 PM 66.9 °F 37.0 °F 33% 29.89 in 10.0 mi NW 6.9 mph - N/A   Clear
6:53 PM 64.9 °F 37.0 °F 36% 29.91 in 10.0 mi NW 4.6 mph - N/A   Clear
7:53 PM 55.9 °F 46.0 °F 69% 29.93 in 10.0 mi Calm Calm - N/A   Clear
8:53 PM 54.0 °F 46.9 °F 77% 29.96 in 10.0 mi Calm Calm - N/A   Clear
9:53 PM 52.0 °F 48.0 °F 86% 29.98 in 10.0 mi Calm Calm - N/A   Clear
10:53 PM 50.0 °F 46.9 °F 89% 29.99 in 10.0 mi Calm Calm - N/A   Clear
11:53 PM 48.0 °F 46.0 °F 93% 30.00 in 10.0 mi Calm Calm - N/A   Clear